Погода в Выксе

Погода в Выксе : погода сейчас, прогноз погоды и архив. Всё, что Вы хотите узнать о погоде в Выксе!

Хотите узнать прогноз погоды в Выксе? Тогда Вам сюда: Погода в Выксе

Поиск расширенной информации на нашем сайте:

Другие новости

Новости СМИ2

Главная страница сайта

Новости сайта

02.10.2013

Напоминаем, что на нашем новом сайте вы можете получить высокодетализированные прогнозы погоды по пунктам России, СНГ и мира (включающие важные для авиации метеовеличины, такие как направление и скорость ветра, видимость, явления погоды, количество и форма облачности, нижняя и верхняя граница облачности), а также ознакомиться с разнообразными материалами по авиационной метеорологии и подборкой полезных ссылок на эту тему.

Сайт Метеоцентр.Азия посвящён разработке технологий оптимизации авиаметеорологического обслуживания, включая проектирование и перспективное создание нескольких автоматизированных авиаметеорологических систем:
- система выпуска высокодетальных прогностических карт явлений погоды для нижнего воздушного пространства по России и ближнему зарубежью;
- система верификации прогнозов TAF (выпускаемых синоптиками официальных АМСГ РФ и ближнего зарубежья) и AUTOTAF (выпускаемых сайтом Метеоцентр.Азия) - выявление ошибок, онлайн-сопоставление с фактической погодой METAR, автоматическое внесение коррективов в прогнозы при резком отклонении фактической погоды от прогноза, подсчёт оправдываемости прогнозов по элементам и в целом;
- система обработки, анализа и отображения авиаметеорологической информации для применения провайдерами метеорологической информации.

Рекомендуем: Читайте тампоны clean point инструкция здесь все понятно!

Погода в Выксе - сегодня

Время (UTC), дата Ветер
(°,м/с) 
Видим.   Явления Облачность Т
(°С)
Тd
(°С)
f(%) Тe
(°С)
Pmin
(гПа)
dP
(гПа)
Po
(мм)
O2
(г/м3)
Тmin Tmax R s Состояние
почвы
03 25.06.17 тихо () -0{02}  10 км    10/0 средняя 
[Ac As]
+11.4 +9 85 +11  1008.4  0.4  746  287  +9.2        влажная 
06 25.06.17 180 (Ю) 1-3{03}  10 км    8/0 средняя, верхняя 
[Ac trans|Cs]
+17.2 +7.7 54 +19  1007.8  -0.4  746  281           
09 25.06.17 280 (З) 3-6{06}  10 км    8/6 600 м кучево-дожд., верхняя 
[Cb cap|Cc]
+19.8 +7.8 46 +21  1007.5  -0.2  746  279           
12 25.06.17 300 (СЗ) 3-4{07}  10 км    9/9 600 м кучево-дожд. 
[Cb cap]
+20.3 +7.3 43 +20  1007.2  -0.2  746  278           
15 25.06.17 180 (Ю) 1-2{06}  10 км  слаб. дождь  9/0 средняя 
[Ac As]
+17.4 +12.2 72 +23  1007.3  746  280    +20.3  0.0     
18 25.06.17 180 (Ю) 1-2{02}  10 км  {дождь}  3/0 верхняя 
[Ci fib]
+16.1 +11.9 76 +21  1007.3  746  281           
21 25.06.17 190 (Ю) 1-2{03}  10 км    8/0 верхняя 
[Ci fib]
+12.8 +10.3 85 +16  1007.7  0.2  746  285           
00 26.06.17 200 (Ю) 2-3{04}  10 км    8/0 средняя 
[Ac As]
+12.6 +10.5 87 +15  1007.8  0.1  746  285           
03 26.06.17 200 (Ю) 2-4{05}  10 км    6/0 средняя 
[Ac As]
+14.2 +12.2 88 +19  1007.3  -0.4  745  283  +12.5    0.0    влажная 
06 26.06.17 240 (ЮЗ) 3-6{08}  10 км    6/4 600 м верхняя 
[Cu hum|Cc]
+20.5 +14.5 68 +29  1006  -1  745  276           
09 26.06.17 250 (З) 5-9{09}  10 км    6/6 1000 м 
[Cu med, cong]
+23.1 +11.1 47 +26  1006.4  0.5  745  275           
12 26.06.17 250 (З) 4-9{09}  10 км    8/8 600 м кучево-дожд. 
[Cb cap]
+24.4 +11.3 44 +27  1006.4  745  274           
15 26.06.17 240 (ЮЗ) 4-8{09}  10 км    6/6 600 м 
[Cu hum]
+24.7 +11.9 45 +29  1005.7  -0.7  745  273    +24.7       
18 26.06.17 180 (Ю) 1-3{08}  10 км    9/6 300 м кучево-дожд., средняя 
[Cb cap|As op]
+21.2 +13.6 62 +28  1005.1  -0.6  744  276           
21 26.06.17 210 (ЮЗ) 2-5{12}  10 км  {дождь}  10/0 средняя 
[As op]
+17.9 +15.5 86 +29  1003.4  -1.9  743  278           
00 27.06.17 210 (ЮЗ) 2-2{05}  10 км  {дождь}  9/0 средняя 
[Ac As]
+17 +15.7 92 +28  1003.1  -0.1  742  278           
03 27.06.17 240 (ЮЗ) 2-4{06}  10 км    8/0 средняя 
[Ac As]
+17.7 +16 90 +30  1003.1  742  277  +16.9      влажная 
06 27.06.17 280 (З) 4-6{09}  10 км    9/0 средняя 
[Ac As]
+18.2 +12.6 70 +24  1004.7  1.6  744  278           
09 27.06.17 300 (СЗ) 4-7  10 км    6/0 средняя 
[Ac As]
+19.6 +10.2 55 +22  1006.4  1.6  745  278           
12 27.06.17 250 (З) 5-7{10}  10 км    6/6 600 м 
[Cu med, cong]
+20 +10.6 55 +22  1006.6  0.3  745  278           
15 27.06.17 290 (З) 5-8{12}  10 км    4/4 600 м 
[Cu hum]
+21.3 +7.6 41 +21  1006.6  745  277    +21.3       
18 27.06.17 250 (З) 2-3{09}  10 км    3/3 1000 м 
[Cu hum]
+16.9 +7.6 54 +18  1006.8  745  281           
21 27.06.17 250 (З) 2-4{04}  10 км    ясно 
+14 +8 67 +15  1008.2  1.3  746  285           
00 28.06.17 240 (ЮЗ) 2-3{06}  10 км    3/3 600 м 
[Cu hum]
+11.7 +8 78 +12  1009.7  1.4  747  287           
03 28.06.17 220 (ЮЗ) 1-2{03}  10 км    ясно 
+13 +8.8 76 +14  1010.4  0.8  748  286  +11.7        влажная 
Время (UTC), дата Ветер
(°,м/с) 
Видим.   Явления Облачность Т
(°С)
Тd
(°С)
f(%) Тe
(°С)
Pmin
(гПа)
dP
(гПа)
Po
(мм)
O2
(г/м3)
Тmin Tmax R s Состояние
почвы

Для получения пояснительной информации подведите курсор к названию столбца.

ПОГОДА в Выксе - архив

Всё, что Вы хотите узнать о погоде в Выксе - удобно и подробно!

Выберите нужную дату (начиная с 1 января 2015* года) и нажмите кнопку "Найти".
Будут отображены архивные сводки погоды по пункту Выкса, начиная с указанной даты.


Отображать данные в формате CSV (для использования в таблицах Excel)


Внимание! Наш архив погоды предназначен исключительно для личного некоммерческого использования в познавательных целях. Если Вам необходимы официальные справки о состоянии погоды (для производственных, юридических, коммерческих и т.п. целей), обращайтесь в органы Росгидромета.

*Примечание: данная дата относится к архиву по метеостанциям СССР (Россия, СНГ, Балтия).
Архив по метеостанциям Зарубежной Европы и Азии (кроме Китая) хранится 10 дней, по другим регионам земного шара (Китай, Африка, Америка, Австралия, Океания) - 1 день.

Выкса - район местоположения метеостанции


Название, широта, долгота, высота метеостанции:
Выкса 55.3°ш. 42.1°д. 114 м над ур. моря [Российская Федерация]

Дополнительная информация

В oтличие oт бoльшинства пoгoдных сайтoв мы публикуем пoдрoбную метеoинфoрмацию в детальнoм прoфессиoнальнoм фoрмате.

Характеристики температуры и влажнoсти вoздуха измеряются на высoте 2 м в тени вдали oт зданий и деревьев.
Скoрoсть ветра измеряется на высoте 10 м (на урoвне рoста челoвека скoрoсть ветра ниже в 1.5-2 раза). Если метеoстанция нахoдится в гoрoде или в лесу, тo скoрoсть ветра занижена на 2-4 м/с пo сравнению с oткрытым местoм. Скoрoсть ветра над акватoриями крупных рек и oзёр, а также на вершинах хoлмoв на 2-5 м/с выше, чем в oбычных услoвиях.
Атмoсфернoе давление в разных тoчках местнoсти мoжет значительнo oтличаться oт давления на метеoстанции, в зависимoсти oт услoвий рельефа (при пoдъёме на 10 м давление пoнижается примернo на 1 мм рт.ст.).